Time,TemperatureF,DewpointF,PressureIn,WindDirection,WindDirectionDegrees,WindSpeedMPH,WindSpeedGustMPH,Humidity,HourlyPrecipIn,Conditions,Clouds,dailyrainin,SoftwareType,DateUTC
2013-05-09 00:03:00,61.1,56.6,29.97,SSW,194,0.0,0.0,85,0.00,OVC,OVC,0.00,WeatherDisplay:10.37,2013-05-09 04:03:00,
2013-05-09 00:08:00,60.9,56.7,29.97,SSW,194,0.0,0.0,86,0.00,OVC,OVC,0.00,WeatherDisplay:10.37,2013-05-09 04:08:00,
2013-05-09 00:13:00,60.7,56.5,29.97,SSW,194,0.0,0.0,86,0.00,OVC,OVC,0.00,WeatherDisplay:10.37,2013-05-09 04:13:00,
2013-05-09 00:18:00,60.8,56.6,29.97,SSW,194,0.0,0.0,86,0.00,OVC,OVC,0.00,WeatherDisplay:10.37,2013-05-09 04:18:00,
2013-05-09 00:23:00,60.8,56.6,29.97,SSW,194,0.0,0.0,86,0.00,OVC,OVC,0.00,WeatherDisplay:10.37,2013-05-09 04:23:00,
2013-05-09 00:28:00,60.6,56.4,29.97,SSW,194,0.0,0.0,86,0.00,OVC,OVC,0.00,WeatherDisplay:10.37,2013-05-09 04:28:00,
2013-05-09 00:33:00,60.5,56.3,29.97,SSW,194,0.0,0.0,86,0.00,OVC,OVC,0.00,WeatherDisplay:10.37,2013-05-09 04:33:00,
2013-05-09 00:38:00,60.6,56.4,29.96,SSW,194,0.0,0.0,86,0.00,OVC,OVC,0.00,WeatherDisplay:10.37,2013-05-09 04:38:00,
2013-05-09 00:43:00,60.6,56.3,29.96,SSW,194,0.0,0.0,86,0.00,OVC,OVC,0.00,WeatherDisplay:10.37,2013-05-09 04:43:00,
2013-05-09 00:48:00,60.5,56.3,29.96,SSW,194,0.0,0.0,86,0.00,OVC,OVC,0.00,WeatherDisplay:10.37,2013-05-09 04:48:00,
2013-05-09 00:53:00,60.5,56.6,29.96,SSW,194,0.0,0.0,87,0.00,OVC,OVC,0.00,WeatherDisplay:10.37,2013-05-09 04:53:00,
2013-05-09 00:58:00,60.4,56.5,29.96,SSW,194,0.0,0.0,87,0.00,OVC,OVC,0.00,WeatherDisplay:10.37,2013-05-09 04:58:00,
2013-05-09 01:03:00,60.3,56.7,29.95,SSW,194,0.0,0.0,88,0.00,OVC,OVC,0.00,WeatherDisplay:10.37,2013-05-09 05:03:00,
2013-05-09 01:08:00,60.3,56.7,29.95,SSW,194,0.0,0.0,88,0.00,OVC,OVC,0.00,WeatherDisplay:10.37,2013-05-09 05:08:00,
2013-05-09 01:13:00,60.3,56.7,29.95,SSW,194,0.0,0.0,88,0.00,OVC,OVC,0.00,WeatherDisplay:10.37,2013-05-09 05:13:00,
2013-05-09 01:18:00,60.1,56.5,29.95,SSW,194,0.0,0.0,88,0.00,OVC,OVC,0.00,WeatherDisplay:10.37,2013-05-09 05:18:00,
2013-05-09 01:23:00,60.0,56.4,29.95,SSW,194,0.0,0.0,88,0.00,OVC,OVC,0.00,WeatherDisplay:10.37,2013-05-09 05:23:00,
2013-05-09 01:28:00,60.0,56.4,29.94,SSW,194,0.0,0.0,88,0.00,OVC,OVC,0.00,WeatherDisplay:10.37,2013-05-09 05:28:00,
2013-05-09 01:38:00,60.0,56.5,29.94,SSW,194,0.0,0.0,88,0.00,OVC,OVC,0.00,WeatherDisplay:10.37,2013-05-09 05:38:00,
2013-05-09 01:43:00,60.1,56.5,29.94,SSW,194,0.0,0.0,88,0.00,OVC,OVC,0.00,WeatherDisplay:10.37,2013-05-09 05:43:00,
2013-05-09 01:48:00,60.0,56.5,29.93,SSW,194,0.0,0.0,88,0.00,OVC,OVC,0.00,WeatherDisplay:10.37,2013-05-09 05:48:00,
2013-05-09 01:53:00,60.0,56.4,29.93,SSW,194,0.0,0.0,88,0.00,OVC,OVC,0.00,WeatherDisplay:10.37,2013-05-09 05:53:00,
2013-05-09 01:58:00,59.9,56.3,29.93,SSW,194,0.0,0.0,88,0.00,OVC,OVC,0.00,WeatherDisplay:10.37,2013-05-09 05:58:00,
2013-05-09 02:03:00,59.8,56.3,29.93,SSW,194,0.0,0.0,88,0.00,OVC,OVC,0.00,WeatherDisplay:10.37,2013-05-09 06:03:00,
2013-05-09 02:08:00,59.7,56.5,29.93,SSW,194,0.0,0.0,89,0.00,OVC,OVC,0.00,WeatherDisplay:10.37,2013-05-09 06:08:00,
2013-05-09 02:13:00,59.5,56.3,29.93,SE,128,0.0,0.0,89,0.00,OVC,OVC,0.00,WeatherDisplay:10.37,2013-05-09 06:13:00,
2013-05-09 02:18:00,59.6,56.3,29.93,East,94,0.0,0.0,89,0.00,OVC,OVC,0.00,WeatherDisplay:10.37,2013-05-09 06:18:00,
2013-05-09 02:23:00,59.6,56.6,29.93,SE,128,0.0,0.0,90,0.00,OVC,OVC,0.00,WeatherDisplay:10.37,2013-05-09 06:23:00,
2013-05-09 02:28:00,59.7,56.8,29.92,SSE,148,0.0,0.0,90,0.00,OVC,OVC,0.00,WeatherDisplay:10.37,2013-05-09 06:28:00,
2013-05-09 02:33:00,59.6,56.6,29.92,SSE,148,0.0,0.0,90,0.00,OVC,OVC,0.00,WeatherDisplay:10.37,2013-05-09 06:33:00,
2013-05-09 02:38:00,59.4,56.5,29.92,SSE,148,0.0,0.0,90,0.00,OVC,OVC,0.00,WeatherDisplay:10.37,2013-05-09 06:38:00,
2013-05-09 02:43:00,59.3,56.7,29.92,SSE,148,0.0,0.0,91,0.00,OVC,OVC,0.00,WeatherDisplay:10.37,2013-05-09 06:43:00,
2013-05-09 02:48:00,59.3,56.7,29.92,SSE,148,0.0,0.0,91,0.00,OVC,OVC,0.00,WeatherDisplay:10.37,2013-05-09 06:48:00,
2013-05-09 02:53:00,59.5,56.9,29.92,SSE,148,0.0,0.0,91,0.00,OVC,OVC,0.00,WeatherDisplay:10.37,2013-05-09 06:53:00,
2013-05-09 02:58:00,59.5,56.9,29.92,SSE,148,0.0,0.0,91,0.00,OVC,OVC,0.00,WeatherDisplay:10.37,2013-05-09 06:58:00,
2013-05-09 03:03:00,59.4,56.8,29.92,SSE,148,0.0,0.0,91,0.00,OVC,OVC,0.00,WeatherDisplay:10.37,2013-05-09 07:03:00,
2013-05-09 03:08:00,59.5,56.9,29.92,SSE,148,0.0,0.0,91,0.00,OVC,OVC,0.00,WeatherDisplay:10.37,2013-05-09 07:08:00,
2013-05-09 03:13:00,59.7,57.1,29.92,ESE,104,0.0,0.0,91,0.00,OVC,OVC,0.00,WeatherDisplay:10.37,2013-05-09 07:13:00,
2013-05-09 03:18:00,59.9,57.3,29.92,ENE,76,0.0,0.0,91,0.00,OVC,OVC,0.00,WeatherDisplay:10.37,2013-05-09 07:18:00,
2013-05-09 03:23:00,59.9,57.3,29.91,ENE,76,0.0,0.0,91,0.00,OVC,OVC,0.00,WeatherDisplay:10.37,2013-05-09 07:23:00,
2013-05-09 03:28:00,59.7,57.0,29.91,ENE,76,0.0,0.0,91,0.00,OVC,OVC,0.00,WeatherDisplay:10.37,2013-05-09 07:28:00,
2013-05-09 03:33:00,59.3,56.7,29.91,ENE,76,0.0,0.0,91,0.00,OVC,OVC,0.00,WeatherDisplay:10.37,2013-05-09 07:33:00,
2013-05-09 03:38:00,59.4,56.7,29.92,East,89,0.0,0.0,91,0.00,OVC,OVC,0.00,WeatherDisplay:10.37,2013-05-09 07:38:00,
2013-05-09 03:43:00,59.4,57.1,29.91,ESE,109,0.0,0.0,92,0.00,OVC,OVC,0.00,WeatherDisplay:10.37,2013-05-09 07:43:00,
2013-05-09 03:48:00,59.3,57.0,29.91,ESE,114,0.0,0.0,92,0.00,OVC,OVC,0.00,WeatherDisplay:10.37,2013-05-09 07:48:00,
2013-05-09 03:53:00,59.4,57.1,29.91,ESE,114,0.0,0.0,92,0.00,OVC,OVC,0.00,WeatherDisplay:10.37,2013-05-09 07:53:00,
2013-05-09 03:58:00,59.3,57.0,29.91,ESE,114,0.0,0.0,92,0.00,OVC,OVC,0.00,WeatherDisplay:10.37,2013-05-09 07:58:00,
2013-05-09 04:03:00,59.5,57.1,29.91,ESE,114,0.0,0.0,92,0.00,OVC,OVC,0.00,WeatherDisplay:10.37,2013-05-09 08:03:00,
2013-05-09 04:08:00,59.5,57.2,29.91,ESE,114,0.0,0.0,92,0.00,OVC,OVC,0.00,WeatherDisplay:10.37,2013-05-09 08:08:00,
2013-05-09 04:13:00,59.5,57.2,29.91,ESE,114,0.0,0.0,92,0.00,OVC,OVC,0.00,WeatherDisplay:10.37,2013-05-09 08:13:00,
2013-05-09 04:18:00,59.5,57.2,29.91,ESE,114,0.0,0.0,92,0.00,OVC,OVC,0.00,WeatherDisplay:10.37,2013-05-09 08:18:00,
2013-05-09 04:23:00,59.5,57.2,29.90,ESE,114,0.0,0.0,92,0.00,OVC,OVC,0.00,WeatherDisplay:10.37,2013-05-09 08:23:00,
2013-05-09 04:28:00,59.5,57.2,29.90,East,91,0.0,0.0,92,0.00,OVC,OVC,0.00,WeatherDisplay:10.37,2013-05-09 08:28:00,
2013-05-09 04:33:00,59.5,57.2,29.90,ENE,71,0.0,0.0,92,0.00,OVC,OVC,0.00,WeatherDisplay:10.37,2013-05-09 08:33:00,
2013-05-09 04:38:00,59.7,57.4,29.90,ENE,71,0.0,0.0,92,0.00,OVC,OVC,0.00,WeatherDisplay:10.37,2013-05-09 08:38:00,
2013-05-09 04:43:00,59.8,57.5,29.90,ENE,71,0.0,0.0,92,0.00,OVC,OVC,0.00,WeatherDisplay:10.37,2013-05-09 08:43:00,
2013-05-09 04:48:00,59.8,57.5,29.90,ENE,71,0.0,0.0,92,0.00,OVC,OVC,0.00,WeatherDisplay:10.37,2013-05-09 08:48:00,
2013-05-09 04:58:00,59.9,57.6,29.90,ENE,71,0.0,0.0,92,0.00,OVC,OVC,0.00,WeatherDisplay:10.37,2013-05-09 08:58:00,
2013-05-09 05:03:00,60.0,57.6,29.90,ENE,75,0.0,0.0,92,0.00,OVC,OVC,0.00,WeatherDisplay:10.37,2013-05-09 09:03:00,
2013-05-09 05:08:00,60.1,57.8,29.90,ENE,78,0.0,0.0,92,0.00,OVC,OVC,0.00,WeatherDisplay:10.37,2013-05-09 09:08:00,
2013-05-09 05:13:00,60.2,57.8,29.90,ENE,78,0.0,0.0,92,0.00,OVC,OVC,0.00,WeatherDisplay:10.37,2013-05-09 09:13:00,
2013-05-09 05:18:00,60.2,57.9,29.90,ENE,77,0.0,0.0,92,0.00,OVC,OVC,0.00,WeatherDisplay:10.37,2013-05-09 09:18:00,
2013-05-09 05:23:00,60.2,57.9,29.90,ENE,77,0.0,0.0,92,0.00,OVC,OVC,0.00,WeatherDisplay:10.37,2013-05-09 09:23:00,
2013-05-09 05:28:00,60.3,58.0,29.90,ENE,77,0.0,0.0,92,0.00,OVC,OVC,0.00,WeatherDisplay:10.37,2013-05-09 09:28:00,
2013-05-09 05:33:00,60.4,58.1,29.90,ENE,77,0.0,0.0,92,0.00,OVC,OVC,0.00,WeatherDisplay:10.37,2013-05-09 09:33:00,
2013-05-09 05:38:00,60.4,58.1,29.90,ENE,77,0.0,0.0,92,0.00,OVC,OVC,0.00,WeatherDisplay:10.37,2013-05-09 09:38:00,
2013-05-09 05:43:00,60.4,58.1,29.90,ENE,77,0.0,0.0,92,0.00,OVC,OVC,0.00,WeatherDisplay:10.37,2013-05-09 09:43:00,
2013-05-09 05:48:00,60.5,58.1,29.90,ENE,77,0.0,0.0,92,0.00,OVC,OVC,0.00,WeatherDisplay:10.37,2013-05-09 09:48:00,
2013-05-09 05:53:00,60.5,58.2,29.90,ENE,78,0.0,0.0,92,0.00,OVC,OVC,0.00,WeatherDisplay:10.37,2013-05-09 09:53:00,
2013-05-09 05:58:00,60.5,58.2,29.90,ENE,78,0.0,0.0,92,0.00,OVC,OVC,0.00,WeatherDisplay:10.37,2013-05-09 09:58:00,
2013-05-09 06:03:00,60.6,58.2,29.90,ENE,77,0.0,3.0,92,0.00,OVC,OVC,0.00,WeatherDisplay:10.37,2013-05-09 10:03:00,
2013-05-09 06:08:00,60.6,58.0,29.90,ENE,74,0.0,1.0,91,0.00,OVC,OVC,0.00,WeatherDisplay:10.37,2013-05-09 10:08:00,
2013-05-09 06:13:00,60.6,58.3,29.90,East,89,0.0,1.0,92,0.00,OVC,OVC,0.00,WeatherDisplay:10.37,2013-05-09 10:13:00,
2013-05-09 06:18:00,60.6,58.3,29.90,ESE,107,0.0,0.0,92,0.00,OVC,OVC,0.00,WeatherDisplay:10.37,2013-05-09 10:18:00,
2013-05-09 06:23:00,60.7,58.0,29.90,East,98,0.0,0.0,91,0.00,OVC,OVC,0.00,WeatherDisplay:10.37,2013-05-09 10:23:00,
2013-05-09 06:28:00,60.7,58.1,29.90,East,92,0.0,0.0,91,0.00,OVC,OVC,0.00,WeatherDisplay:10.37,2013-05-09 10:28:00,
2013-05-09 06:33:00,60.7,58.4,29.90,East,92,0.0,0.0,92,0.00,OVC,OVC,0.00,WeatherDisplay:10.37,2013-05-09 10:33:00,
2013-05-09 06:38:00,60.8,58.4,29.90,East,92,0.0,0.0,92,0.00,OVC,OVC,0.00,WeatherDisplay:10.37,2013-05-09 10:38:00,
2013-05-09 06:43:00,60.8,58.5,29.90,East,92,0.0,0.0,92,0.00,OVC,OVC,0.00,WeatherDisplay:10.37,2013-05-09 10:43:00,
2013-05-09 06:48:00,61.0,58.6,29.90,East,92,0.0,0.0,92,0.00,OVC,OVC,0.00,WeatherDisplay:10.37,2013-05-09 10:48:00,
2013-05-09 06:53:00,61.1,58.4,29.90,East,92,0.0,0.0,91,0.00,OVC,OVC,0.00,WeatherDisplay:10.37,2013-05-09 10:53:00,
2013-05-09 06:58:00,61.2,58.6,29.90,East,92,0.0,0.0,91,0.00,OVC,OVC,0.00,WeatherDisplay:10.37,2013-05-09 10:58:00,
2013-05-09 07:03:00,61.2,58.6,29.90,East,92,0.0,0.0,91,0.00,OVC,OVC,0.00,WeatherDisplay:10.37,2013-05-09 11:03:00,
2013-05-09 07:08:00,61.4,58.7,29.90,East,92,0.0,0.0,91,0.00,OVC,OVC,0.00,WeatherDisplay:10.37,2013-05-09 11:08:00,
2013-05-09 07:13:00,61.4,58.7,29.90,East,90,0.0,1.0,91,0.00,OVC,OVC,0.00,WeatherDisplay:10.37,2013-05-09 11:13:00,
2013-05-09 07:18:00,61.4,58.5,29.90,ENE,74,0.0,1.0,90,0.00,OVC,OVC,0.00,WeatherDisplay:10.37,2013-05-09 11:18:00,
2013-05-09 07:23:00,61.6,58.6,29.91,ENE,60,0.0,0.0,90,0.00,OVC,OVC,0.00,WeatherDisplay:10.37,2013-05-09 11:23:00,
2013-05-09 07:28:00,61.7,58.7,29.90,ENE,60,0.0,0.0,90,0.00,OVC,OVC,0.00,WeatherDisplay:10.37,2013-05-09 11:28:00,
2013-05-09 07:33:00,61.9,58.9,29.90,ENE,60,0.0,0.0,90,0.00,OVC,OVC,0.00,WeatherDisplay:10.37,2013-05-09 11:33:00,
2013-05-09 07:38:00,62.0,58.7,29.90,ENE,60,0.0,0.0,89,0.00,OVC,OVC,0.00,WeatherDisplay:10.37,2013-05-09 11:38:00,
2013-05-09 07:48:00,62.3,59.0,29.90,ENE,62,0.0,0.0,89,0.00,OVC,OVC,0.00,WeatherDisplay:10.37,2013-05-09 11:48:00,
2013-05-09 07:53:00,62.3,59.0,29.90,ENE,68,0.0,0.0,89,0.00,OVC,OVC,0.00,WeatherDisplay:10.37,2013-05-09 11:53:00,
2013-05-09 07:58:00,62.3,59.0,29.90,ENE,71,0.0,0.0,89,0.00,OVC,OVC,0.00,WeatherDisplay:10.37,2013-05-09 11:58:00,
2013-05-09 08:03:00,62.4,59.1,29.90,ENE,71,0.0,0.0,89,0.00,OVC,OVC,0.00,WeatherDisplay:10.37,2013-05-09 12:03:00,
2013-05-09 08:08:00,62.3,59.0,29.90,ENE,71,0.0,0.0,89,0.00,OVC,OVC,0.00,WeatherDisplay:10.37,2013-05-09 12:08:00,
2013-05-09 08:13:00,62.5,59.2,29.90,ENE,71,0.0,0.0,89,0.00,BKN,OVC,0.00,WeatherDisplay:10.37,2013-05-09 12:13:00,
2013-05-09 08:18:00,62.4,58.8,29.90,ENE,71,0.0,0.0,88,0.00,BKN,OVC,0.00,WeatherDisplay:10.37,2013-05-09 12:18:00,
2013-05-09 08:23:00,62.6,59.0,29.90,East,91,0.0,0.0,88,0.00,BKN,OVC,0.00,WeatherDisplay:10.37,2013-05-09 12:23:00,
2013-05-09 08:28:00,62.8,59.2,29.90,East,101,0.0,0.0,88,0.00,BKN,OVC,0.00,WeatherDisplay:10.37,2013-05-09 12:28:00,
2013-05-09 08:33:00,63.0,59.1,29.90,East,96,0.0,0.0,87,0.00,BKN,OVC,0.00,WeatherDisplay:10.37,2013-05-09 12:33:00,
2013-05-09 08:38:00,62.8,58.9,29.90,East,94,0.0,0.0,87,0.00,BKN,OVC,0.00,WeatherDisplay:10.37,2013-05-09 12:38:00,
2013-05-09 08:43:00,63.4,59.4,29.90,East,94,0.0,0.0,87,0.00,BKN,OVC,0.00,WeatherDisplay:10.37,2013-05-09 12:43:00,
2013-05-09 08:48:00,63.8,59.5,29.90,East,94,0.0,0.0,86,0.00,BKN,OVC,0.00,WeatherDisplay:10.37,2013-05-09 12:48:00,
2013-05-09 08:53:00,63.5,59.3,29.90,ESE,113,0.0,0.0,86,0.00,BKN,OVC,0.00,WeatherDisplay:10.37,2013-05-09 12:53:00,
2013-05-09 08:58:00,63.7,59.4,29.89,SE,131,0.0,0.0,86,0.00,BKN,OVC,0.00,WeatherDisplay:10.37,2013-05-09 12:58:00,
2013-05-09 09:03:00,64.2,59.6,29.89,SE,131,0.0,0.0,85,0.00,BKN,OVC,0.00,WeatherDisplay:10.37,2013-05-09 13:03:00,
2013-05-09 09:08:00,64.3,59.3,29.89,SE,131,0.0,0.0,84,0.00,BKN,OVC,0.00,WeatherDisplay:10.37,2013-05-09 13:08:00,
2013-05-09 09:13:00,63.8,59.2,29.89,SE,131,0.0,0.0,85,0.00,BKN,OVC,0.00,WeatherDisplay:10.37,2013-05-09 13:13:00,
2013-05-09 09:18:00,65.6,61.0,29.89,SE,133,0.0,1.0,85,0.00,BKN,OVC,0.00,WeatherDisplay:10.37,2013-05-09 13:18:00,
2013-05-09 09:23:00,67.1,60.0,29.89,SE,145,0.0,0.0,78,0.00,BKN,OVC,0.00,WeatherDisplay:10.37,2013-05-09 13:23:00,
2013-05-09 09:28:00,65.5,59.5,29.89,SE,129,0.0,4.0,81,0.00,BKN,OVC,0.00,WeatherDisplay:10.37,2013-05-09 13:28:00,
2013-05-09 09:33:00,66.3,60.3,29.89,ESE,115,0.0,0.0,81,0.00,BKN,OVC,0.00,WeatherDisplay:10.37,2013-05-09 13:33:00,
2013-05-09 09:38:00,66.1,59.0,29.88,ESE,118,0.0,1.0,78,0.00,BKN,OVC,0.00,WeatherDisplay:10.37,2013-05-09 13:38:00,
2013-05-09 09:43:00,65.7,59.4,29.88,SE,127,0.0,3.0,80,0.00,BKN,OVC,0.00,WeatherDisplay:10.37,2013-05-09 13:43:00,
2013-05-09 09:48:00,66.7,60.0,29.88,ESE,112,0.0,1.0,79,0.00,BKN,OVC,0.00,WeatherDisplay:10.37,2013-05-09 13:48:00,
2013-05-09 09:53:00,66.5,59.1,29.88,East,94,0.0,0.0,77,0.00,BKN,OVC,0.00,WeatherDisplay:10.37,2013-05-09 13:53:00,
2013-05-09 09:58:00,65.5,57.7,29.88,East,95,0.0,2.0,76,0.00,BKN,OVC,0.00,WeatherDisplay:10.37,2013-05-09 13:58:00,
2013-05-09 10:03:00,65.3,59.0,29.88,East,96,0.0,0.0,80,0.00,BKN,OVC,0.00,WeatherDisplay:10.37,2013-05-09 14:03:00,
2013-05-09 10:08:00,65.6,58.9,29.88,East,96,0.0,0.0,79,0.00,BKN,OVC,0.00,WeatherDisplay:10.37,2013-05-09 14:08:00,
2013-05-09 10:13:00,66.7,58.8,29.88,East,99,0.0,1.0,76,0.00,BKN,OVC,0.00,WeatherDisplay:10.37,2013-05-09 14:13:00,
2013-05-09 10:18:00,68.0,59.0,29.88,ESE,112,0.0,1.0,73,0.00,BKN,OVC,0.00,WeatherDisplay:10.37,2013-05-09 14:18:00,
2013-05-09 10:23:00,68.8,58.2,29.88,ESE,119,0.0,0.0,69,0.00,BKN,OVC,0.00,WeatherDisplay:10.37,2013-05-09 14:23:00,
2013-05-09 10:28:00,67.4,58.0,29.88,SSE,147,0.0,1.0,72,0.00,BKN,OVC,0.00,WeatherDisplay:10.37,2013-05-09 14:28:00,
2013-05-09 10:33:00,67.7,58.7,29.88,SSW,196,0.0,3.0,73,0.00,BKN,OVC,0.00,WeatherDisplay:10.37,2013-05-09 14:33:00,
2013-05-09 10:43:00,68.5,58.3,29.87,SE,133,0.0,0.0,70,0.00,BKN,OVC,0.00,WeatherDisplay:10.37,2013-05-09 14:43:00,
2013-05-09 10:48:00,68.1,58.3,29.87,SSE,147,0.0,2.0,71,0.00,BKN,OVC,0.00,WeatherDisplay:10.37,2013-05-09 14:48:00,
2013-05-09 10:53:00,67.8,58.4,29.87,SSE,155,0.0,0.0,72,0.00,BKN,OVC,0.00,WeatherDisplay:10.37,2013-05-09 14:53:00,
2013-05-09 10:58:00,68.8,59.4,29.87,ESE,106,0.0,1.0,72,0.00,BKN,OVC,0.00,WeatherDisplay:10.37,2013-05-09 14:58:00,
2013-05-09 11:03:00,70.9,59.0,29.87,East,81,0.0,1.0,66,0.00,BKN,OVC,0.00,WeatherDisplay:10.37,2013-05-09 15:03:00,
2013-05-09 11:08:00,71.3,58.5,29.87,SW,227,0.0,2.0,64,0.00,BKN,OVC,0.00,WeatherDisplay:10.37,2013-05-09 15:08:00,
2013-05-09 11:13:00,69.3,57.9,29.86,South,176,0.0,0.0,67,0.00,BKN,OVC,0.00,WeatherDisplay:10.37,2013-05-09 15:13:00,
2013-05-09 11:18:00,70.1,58.6,29.86,South,186,0.0,0.0,67,0.00,BKN,OVC,0.00,WeatherDisplay:10.37,2013-05-09 15:18:00,
2013-05-09 11:23:00,72.3,58.0,29.86,SSW,204,1.0,3.0,61,0.00,BKN,OVC,0.00,WeatherDisplay:10.37,2013-05-09 15:23:00,
2013-05-09 11:28:00,72.6,58.4,29.86,South,182,0.0,5.0,61,0.00,BKN,OVC,0.00,WeatherDisplay:10.37,2013-05-09 15:28:00,
2013-05-09 11:33:00,73.3,59.9,29.86,ESE,121,0.0,3.0,63,0.00,BKN,OVC,0.00,WeatherDisplay:10.37,2013-05-09 15:33:00,
2013-05-09 11:38:00,74.0,57.8,29.86,ESE,115,1.0,3.0,57,0.00,BKN,OVC,0.00,WeatherDisplay:10.37,2013-05-09 15:38:00,
2013-05-09 11:43:00,74.0,57.8,29.86,ESE,122,0.0,1.0,57,0.00,BKN,OVC,0.00,WeatherDisplay:10.37,2013-05-09 15:43:00,
2013-05-09 11:48:00,73.7,57.6,29.86,ESE,115,1.0,5.0,57,0.00,BKN,OVC,0.00,WeatherDisplay:10.37,2013-05-09 15:48:00,
2013-05-09 11:53:00,74.4,58.7,29.86,SE,139,0.0,2.0,58,0.00,BKN,OVC,0.00,WeatherDisplay:10.37,2013-05-09 15:53:00,
2013-05-09 11:58:00,74.7,58.4,29.85,SSW,198,0.0,3.0,57,0.00,BKN,OVC,0.00,WeatherDisplay:10.37,2013-05-09 15:58:00,
2013-05-09 12:03:00,73.5,56.8,29.85,SE,126,0.0,4.0,56,0.00,BKN,OVC,0.00,WeatherDisplay:10.37,2013-05-09 16:03:00,
2013-05-09 12:08:00,73.5,59.3,29.85,SE,135,0.0,1.0,61,0.00,BKN,OVC,0.00,WeatherDisplay:10.37,2013-05-09 16:08:00,
2013-05-09 12:13:00,74.2,58.0,29.85,SSE,165,0.0,2.0,57,0.00,BKN,OVC,0.00,WeatherDisplay:10.37,2013-05-09 16:13:00,
2013-05-09 12:18:00,74.5,57.8,29.84,South,184,0.0,3.0,56,0.00,BKN,OVC,0.00,WeatherDisplay:10.37,2013-05-09 16:18:00,
2013-05-09 12:23:00,75.2,56.4,29.84,South,169,0.0,1.0,52,0.00,BKN,OVC,0.00,WeatherDisplay:10.37,2013-05-09 16:23:00,
2013-05-09 12:28:00,73.0,56.8,29.84,SSW,197,0.0,2.0,57,0.00,BKN,OVC,0.00,WeatherDisplay:10.37,2013-05-09 16:28:00,
2013-05-09 12:33:00,73.9,56.7,29.84,South,188,0.0,4.0,55,0.00,BKN,OVC,0.00,WeatherDisplay:10.37,2013-05-09 16:33:00,
2013-05-09 12:38:00,75.5,57.7,29.84,WSW,247,1.0,7.0,54,0.00,BKN,OVC,0.00,WeatherDisplay:10.37,2013-05-09 16:38:00,
2013-05-09 12:43:00,75.9,56.5,29.84,WSW,252,0.0,3.0,51,0.00,BKN,OVC,0.00,WeatherDisplay:10.37,2013-05-09 16:43:00,
2013-05-09 12:48:00,75.7,56.3,29.83,South,181,0.0,3.0,51,0.00,BKN,OVC,0.00,WeatherDisplay:10.37,2013-05-09 16:48:00,
2013-05-09 12:53:00,75.3,56.0,29.83,South,182,0.0,2.0,51,0.00,BKN,OVC,0.00,WeatherDisplay:10.37,2013-05-09 16:53:00,
2013-05-09 12:58:00,76.5,56.5,29.83,South,179,1.0,4.0,50,0.00,BKN,OVC,0.00,WeatherDisplay:10.37,2013-05-09 16:58:00,
2013-05-09 13:03:00,76.2,56.7,29.83,SE,142,0.0,4.0,51,0.00,BKN,OVC,0.00,WeatherDisplay:10.37,2013-05-09 17:03:00,
2013-05-09 13:08:00,75.7,55.2,29.83,SSE,161,1.0,8.0,49,0.00,BKN,OVC,0.00,WeatherDisplay:10.37,2013-05-09 17:08:00,
2013-05-09 13:13:00,75.3,56.4,29.83,South,181,0.0,5.0,52,0.00,BKN,OVC,0.00,WeatherDisplay:10.37,2013-05-09 17:13:00,
2013-05-09 13:18:00,75.9,55.9,29.82,SE,140,1.0,6.0,50,0.00,BKN,OVC,0.00,WeatherDisplay:10.37,2013-05-09 17:18:00,
2013-05-09 13:23:00,76.7,55.5,29.83,SSE,165,1.0,4.0,48,0.00,BKN,OVC,0.00,WeatherDisplay:10.37,2013-05-09 17:23:00,
2013-05-09 13:28:00,77.6,53.9,29.82,SSW,195,5.0,7.0,44,0.00,BKN,OVC,0.00,WeatherDisplay:10.37,2013-05-09 17:28:00,
2013-05-09 13:33:00,76.9,54.0,29.82,South,181,1.0,7.0,45,0.00,BKN,OVC,0.00,WeatherDisplay:10.37,2013-05-09 17:33:00,
2013-05-09 13:38:00,77.5,53.9,29.82,South,181,3.0,10.0,44,0.00,BKN,OVC,0.00,WeatherDisplay:10.37,2013-05-09 17:38:00,
2013-05-09 13:43:00,77.8,53.5,29.82,SSW,202,1.0,6.0,43,0.00,BKN,OVC,0.00,WeatherDisplay:10.37,2013-05-09 17:43:00,
2013-05-09 13:53:00,76.4,54.6,29.82,South,190,0.0,8.0,47,0.00,BKN,OVC,0.00,WeatherDisplay:10.37,2013-05-09 17:53:00,
2013-05-09 13:58:00,76.8,54.4,29.82,South,178,1.0,8.0,46,0.00,BKN,OVC,0.00,WeatherDisplay:10.37,2013-05-09 17:58:00,
2013-05-09 14:03:00,76.9,54.6,29.81,SSE,157,2.0,8.0,46,0.00,BKN,OVC,0.00,WeatherDisplay:10.37,2013-05-09 18:03:00,
2013-05-09 14:08:00,78.3,54.0,29.81,South,171,2.0,10.0,43,0.00,BKN,OVC,0.00,WeatherDisplay:10.37,2013-05-09 18:08:00,
2013-05-09 14:13:00,76.9,54.0,29.81,SE,143,1.0,10.0,45,0.00,BKN,OVC,0.00,WeatherDisplay:10.37,2013-05-09 18:13:00,
2013-05-09 14:18:00,77.8,55.4,29.81,SE,144,2.0,6.0,46,0.00,BKN,OVC,0.00,WeatherDisplay:10.37,2013-05-09 18:18:00,
2013-05-09 14:23:00,77.5,52.6,29.81,SSE,157,0.0,5.0,42,0.00,BKN,OVC,0.00,WeatherDisplay:10.37,2013-05-09 18:23:00,
2013-05-09 14:33:00,78.3,53.3,29.81,SSW,203,0.0,7.0,42,0.00,BKN,OVC,0.00,WeatherDisplay:10.37,2013-05-09 18:33:00,
2013-05-09 14:38:00,76.1,53.2,29.81,SSW,207,1.0,7.0,45,0.00,BKN,OVC,0.00,WeatherDisplay:10.37,2013-05-09 18:38:00,
2013-05-09 14:43:00,76.7,54.3,29.80,SSW,205,3.0,7.0,46,0.00,BKN,OVC,0.00,WeatherDisplay:10.37,2013-05-09 18:43:00,
2013-05-09 14:48:00,77.9,54.8,29.80,SSW,197,5.0,12.0,45,0.00,BKN,OVC,0.00,WeatherDisplay:10.37,2013-05-09 18:48:00,
2013-05-09 14:53:00,78.1,55.0,29.80,South,172,1.0,7.0,45,0.00,BKN,OVC,0.00,WeatherDisplay:10.37,2013-05-09 18:53:00,
2013-05-09 14:58:00,78.7,55.6,29.80,SE,144,1.0,6.0,45,0.00,BKN,OVC,0.00,WeatherDisplay:10.37,2013-05-09 18:58:00,
2013-05-09 15:03:00,78.4,54.1,29.80,SSE,161,1.0,5.0,43,0.00,BKN,OVC,0.00,WeatherDisplay:10.37,2013-05-09 19:03:00,
2013-05-09 15:08:00,78.1,53.1,29.80,SSE,150,1.0,5.0,42,0.00,BKN,OVC,0.00,WeatherDisplay:10.37,2013-05-09 19:08:00,
2013-05-09 15:13:00,78.3,54.6,29.80,SSE,167,0.0,4.0,44,0.00,BKN,OVC,0.00,WeatherDisplay:10.37,2013-05-09 19:13:00,
2013-05-09 15:18:00,78.9,53.8,29.79,South,178,2.0,7.0,42,0.00,BKN,OVC,0.00,WeatherDisplay:10.37,2013-05-09 19:18:00,
2013-05-09 15:23:00,78.6,53.6,29.79,SSW,203,1.0,6.0,42,0.00,BKN,OVC,0.00,WeatherDisplay:10.37,2013-05-09 19:23:00,
2013-05-09 15:28:00,77.7,53.4,29.79,SW,218,0.0,5.0,43,0.00,BKN,OVC,0.00,WeatherDisplay:10.37,2013-05-09 19:28:00,
2013-05-09 15:33:00,76.1,52.6,29.79,South,184,2.0,7.0,44,0.00,BKN,OVC,0.00,WeatherDisplay:10.37,2013-05-09 19:33:00,
2013-05-09 15:38:00,76.7,53.8,29.79,SE,129,0.0,7.0,45,0.00,BKN,OVC,0.00,WeatherDisplay:10.37,2013-05-09 19:38:00,
2013-05-09 15:43:00,77.9,51.7,29.80,WSW,247,3.0,10.0,40,0.00,BKN,OVC,0.00,WeatherDisplay:10.37,2013-05-09 19:43:00,
2013-05-09 15:48:00,77.3,52.4,29.80,SW,226,1.0,4.0,42,0.00,BKN,OVC,0.00,WeatherDisplay:10.37,2013-05-09 19:48:00,
2013-05-09 15:58:00,76.0,51.9,29.80,SW,225,1.0,6.0,43,0.00,BKN,OVC,0.00,WeatherDisplay:10.37,2013-05-09 19:58:00,
2013-05-09 16:03:00,75.1,51.1,29.80,SSW,213,2.0,9.0,43,0.00,BKN,OVC,0.00,WeatherDisplay:10.37,2013-05-09 20:03:00,
2013-05-09 16:08:00,74.9,52.8,29.80,SSW,208,0.0,1.0,46,0.00,BKN,OVC,0.00,WeatherDisplay:10.37,2013-05-09 20:08:00,
2013-05-09 16:13:00,75.0,50.9,29.80,SW,233,2.0,6.0,43,0.00,BKN,OVC,0.00,WeatherDisplay:10.37,2013-05-09 20:13:00,
2013-05-09 16:18:00,74.7,50.1,29.80,WSW,254,2.0,9.0,42,0.00,BKN,OVC,0.00,WeatherDisplay:10.37,2013-05-09 20:18:00,
2013-05-09 16:23:00,75.2,49.9,29.80,WSW,252,2.0,8.0,41,0.00,BKN,OVC,0.00,WeatherDisplay:10.37,2013-05-09 20:23:00,
2013-05-09 16:28:00,75.1,50.4,29.80,WSW,257,0.0,4.0,42,0.00,BKN,OVC,0.00,WeatherDisplay:10.37,2013-05-09 20:28:00,
2013-05-09 16:33:00,74.7,49.5,29.80,West,278,3.0,6.0,41,0.00,BKN,OVC,0.00,WeatherDisplay:10.37,2013-05-09 20:33:00,
2013-05-09 16:38:00,75.0,50.3,29.80,WNW,285,0.0,4.0,42,0.00,BKN,OVC,0.00,WeatherDisplay:10.37,2013-05-09 20:38:00,
2013-05-09 16:43:00,74.8,55.5,29.80,WNW,292,1.0,5.0,51,0.00,BKN,OVC,0.00,WeatherDisplay:10.37,2013-05-09 20:43:00,
2013-05-09 16:48:00,73.7,56.0,29.81,NNW,335,1.0,5.0,54,0.00,BKN,OVC,0.00,WeatherDisplay:10.37,2013-05-09 20:48:00,
2013-05-09 16:53:00,72.6,56.0,29.81,NNW,336,2.0,7.0,56,0.00,BKN,OVC,0.00,WeatherDisplay:10.37,2013-05-09 20:53:00,
2013-05-09 16:58:00,71.6,56.0,29.80,NNW,341,1.0,6.0,58,0.00,BKN,OVC,0.00,WeatherDisplay:10.37,2013-05-09 20:58:00,
2013-05-09 17:03:00,70.8,56.2,29.81,NW,314,3.0,7.0,60,0.00,BKN,OVC,0.00,WeatherDisplay:10.37,2013-05-09 21:03:00,
2013-05-09 17:08:00,70.2,56.1,29.81,WNW,295,6.0,12.0,61,0.00,BKN,OVC,0.00,WeatherDisplay:10.37,2013-05-09 21:08:00,
2013-05-09 17:13:00,68.9,55.4,29.81,WNW,300,5.0,14.0,62,0.00,BKN,OVC,0.00,WeatherDisplay:10.37,2013-05-09 21:13:00,
2013-05-09 17:18:00,68.0,55.8,29.81,WNW,301,2.0,10.0,65,0.00,BKN,OVC,0.00,WeatherDisplay:10.37,2013-05-09 21:18:00,
2013-05-09 17:23:00,67.9,55.7,29.81,NW,317,3.0,12.0,65,0.00,BKN,OVC,0.00,WeatherDisplay:10.37,2013-05-09 21:23:00,
2013-05-09 17:28:00,67.8,56.0,29.81,NNW,343,3.0,8.0,66,0.00,BKN,OVC,0.00,WeatherDisplay:10.37,2013-05-09 21:28:00,
2013-05-09 17:33:00,67.8,56.4,29.81,North,350,1.0,8.0,67,0.00,BKN,OVC,0.00,WeatherDisplay:10.37,2013-05-09 21:33:00,
2013-05-09 17:38:00,67.8,56.4,29.81,NW,325,2.0,8.0,67,0.00,BKN,OVC,0.00,WeatherDisplay:10.37,2013-05-09 21:38:00,
2013-05-09 17:43:00,67.7,55.9,29.81,NW,318,3.0,11.0,66,0.00,BKN,OVC,0.00,WeatherDisplay:10.37,2013-05-09 21:43:00,
2013-05-09 17:48:00,67.5,55.8,29.81,NW,317,1.0,7.0,66,0.00,BKN,OVC,0.00,WeatherDisplay:10.37,2013-05-09 21:48:00,
2013-05-09 17:58:00,67.1,55.4,29.81,NW,313,1.0,8.0,66,0.00,BKN,OVC,0.00,WeatherDisplay:10.37,2013-05-09 21:58:00,
2013-05-09 18:03:00,66.9,55.6,29.81,NW,317,1.0,6.0,67,0.00,BKN,OVC,0.00,WeatherDisplay:10.37,2013-05-09 22:03:00,
2013-05-09 18:08:00,66.5,54.8,29.81,NW,312,3.0,10.0,66,0.00,BKN,OVC,0.00,WeatherDisplay:10.37,2013-05-09 22:08:00,
2013-05-09 18:13:00,66.2,54.9,29.81,WNW,297,1.0,7.0,67,0.00,BKN,OVC,0.00,WeatherDisplay:10.37,2013-05-09 22:13:00,
2013-05-09 18:18:00,66.1,54.8,29.81,WNW,297,0.0,3.0,67,0.00,BKN,OVC,0.00,WeatherDisplay:10.37,2013-05-09 22:18:00,
2013-05-09 18:23:00,66.0,54.7,29.80,NW,316,0.0,3.0,67,0.00,BKN,OVC,0.00,WeatherDisplay:10.37,2013-05-09 22:23:00,
2013-05-09 18:28:00,65.9,55.0,29.80,WNW,296,1.0,4.0,68,0.00,BKN,OVC,0.00,WeatherDisplay:10.37,2013-05-09 22:28:00,
2013-05-09 18:33:00,65.9,55.0,29.80,WNW,295,0.0,4.0,68,0.00,BKN,OVC,0.00,WeatherDisplay:10.37,2013-05-09 22:33:00,
2013-05-09 18:38:00,65.9,55.0,29.80,NW,313,0.0,4.0,68,0.00,BKN,OVC,0.00,WeatherDisplay:10.37,2013-05-09 22:38:00,
2013-05-09 18:43:00,66.0,55.1,29.80,NW,310,1.0,6.0,68,0.00,BKN,OVC,0.00,WeatherDisplay:10.37,2013-05-09 22:43:00,
2013-05-09 18:48:00,66.1,54.8,29.81,WNW,302,2.0,4.0,67,0.00,BKN,OVC,0.00,WeatherDisplay:10.37,2013-05-09 22:48:00,
2013-05-09 18:53:00,66.1,54.8,29.81,NW,312,2.0,5.0,67,0.00,BKN,OVC,0.00,WeatherDisplay:10.37,2013-05-09 22:53:00,
2013-05-09 18:58:00,66.1,54.8,29.81,NW,315,3.0,7.0,67,0.00,BKN,OVC,0.00,WeatherDisplay:10.37,2013-05-09 22:58:00,
2013-05-09 19:03:00,66.1,54.8,29.81,WNW,297,1.0,4.0,67,0.00,BKN,OVC,0.00,WeatherDisplay:10.37,2013-05-09 23:03:00,
2013-05-09 19:08:00,66.2,54.9,29.81,NW,306,0.0,3.0,67,0.00,BKN,OVC,0.00,WeatherDisplay:10.37,2013-05-09 23:08:00,
2013-05-09 19:13:00,66.2,54.9,29.81,NW,322,2.0,4.0,67,0.00,BKN,OVC,0.00,WeatherDisplay:10.37,2013-05-09 23:13:00,
2013-05-09 19:18:00,66.2,54.9,29.81,WNW,303,0.0,7.0,67,0.00,BKN,OVC,0.00,WeatherDisplay:10.37,2013-05-09 23:18:00,
2013-05-09 19:23:00,66.1,54.8,29.81,WNW,297,1.0,3.0,67,0.00,BKN,OVC,0.00,WeatherDisplay:10.37,2013-05-09 23:23:00,
2013-05-09 19:28:00,66.0,55.1,29.82,NW,307,0.0,4.0,68,0.00,BKN,OVC,0.00,WeatherDisplay:10.37,2013-05-09 23:28:00,
2013-05-09 19:33:00,65.9,55.0,29.82,NW,312,1.0,4.0,68,0.00,BKN,OVC,0.00,WeatherDisplay:10.37,2013-05-09 23:33:00,
2013-05-09 19:38:00,65.9,55.0,29.82,NW,326,0.0,3.0,68,0.00,BKN,OVC,0.00,WeatherDisplay:10.37,2013-05-09 23:38:00,
2013-05-09 19:43:00,65.7,55.2,29.82,NW,324,0.0,4.0,69,0.00,BKN,OVC,0.00,WeatherDisplay:10.37,2013-05-09 23:43:00,
2013-05-09 19:48:00,65.6,55.5,29.82,NW,313,1.0,5.0,70,0.00,BKN,OVC,0.00,WeatherDisplay:10.37,2013-05-09 23:48:00,
2013-05-09 19:53:00,65.5,55.4,29.83,WNW,302,0.0,2.0,70,0.00,BKN,OVC,0.00,WeatherDisplay:10.37,2013-05-09 23:53:00,
2013-05-09 19:58:00,65.3,55.7,29.82,WNW,298,0.0,1.0,71,0.00,BKN,OVC,0.00,WeatherDisplay:10.37,2013-05-09 23:58:00,
2013-05-09 20:03:00,65.1,55.5,29.82,NNW,343,0.0,1.0,71,0.00,BKN,OVC,0.00,WeatherDisplay:10.37,2013-05-10 00:03:00,
2013-05-09 20:08:00,65.0,55.8,29.82,NNW,333,0.0,2.0,72,0.00,BKN,OVC,0.00,WeatherDisplay:10.37,2013-05-10 00:08:00,
2013-05-09 20:13:00,65.0,55.4,29.83,NW,307,2.0,4.0,71,0.00,BKN,OVC,0.00,WeatherDisplay:10.37,2013-05-10 00:13:00,
2013-05-09 20:18:00,65.1,55.5,29.83,NW,311,1.0,4.0,71,0.00,BKN,OVC,0.00,WeatherDisplay:10.37,2013-05-10 00:18:00,
2013-05-09 20:23:00,65.1,55.5,29.83,NW,304,1.0,3.0,71,0.00,BKN,OVC,0.00,WeatherDisplay:10.37,2013-05-10 00:23:00,
2013-05-09 20:28:00,64.9,55.3,29.83,NW,309,1.0,6.0,71,0.00,BKN,OVC,0.00,WeatherDisplay:10.37,2013-05-10 00:28:00,
2013-05-09 20:33:00,64.8,55.6,29.83,WNW,299,0.0,3.0,72,0.00,BKN,OVC,0.00,WeatherDisplay:10.37,2013-05-10 00:33:00,
2013-05-09 20:38:00,64.7,55.5,29.83,WNW,294,0.0,2.0,72,0.00,BKN,OVC,0.00,WeatherDisplay:10.37,2013-05-10 00:38:00,
2013-05-09 20:43:00,64.5,55.3,29.83,NW,321,1.0,5.0,72,0.00,BKN,OVC,0.00,WeatherDisplay:10.37,2013-05-10 00:43:00,
2013-05-09 20:48:00,64.3,55.1,29.83,NW,319,1.0,4.0,72,0.00,BKN,OVC,0.00,WeatherDisplay:10.37,2013-05-10 00:48:00,
2013-05-09 20:53:00,64.2,55.4,29.83,NW,317,0.0,3.0,73,0.00,BKN,OVC,0.00,WeatherDisplay:10.37,2013-05-10 00:53:00,
2013-05-09 20:58:00,64.2,55.4,29.83,NW,322,1.0,6.0,73,0.00,BKN,OVC,0.00,WeatherDisplay:10.37,2013-05-10 00:58:00,
2013-05-09 21:03:00,64.0,55.6,29.83,NW,320,0.0,2.0,74,0.00,BKN,OVC,0.00,WeatherDisplay:10.37,2013-05-10 01:03:00,
2013-05-09 21:08:00,63.9,55.4,29.83,NW,308,0.0,3.0,74,0.00,BKN,OVC,0.00,WeatherDisplay:10.37,2013-05-10 01:08:00,
2013-05-09 21:13:00,63.8,55.4,29.84,NNW,334,0.0,2.0,74,0.00,BKN,OVC,0.00,WeatherDisplay:10.37,2013-05-10 01:13:00,
2013-05-09 21:18:00,63.8,55.7,29.84,NW,324,0.0,3.0,75,0.00,BKN,OVC,0.00,WeatherDisplay:10.37,2013-05-10 01:18:00,
2013-05-09 21:23:00,63.8,55.7,29.85,NW,309,0.0,3.0,75,0.00,BKN,OVC,0.00,WeatherDisplay:10.37,2013-05-10 01:23:00,
2013-05-09 21:28:00,63.6,55.9,29.85,NW,313,0.0,0.0,76,0.00,BKN,OVC,0.00,WeatherDisplay:10.37,2013-05-10 01:28:00,
2013-05-09 21:33:00,63.3,55.6,29.85,NW,313,0.0,0.0,76,0.00,BKN,OVC,0.00,WeatherDisplay:10.37,2013-05-10 01:33:00,
2013-05-09 21:38:00,63.1,55.8,29.85,NW,313,0.0,0.0,77,0.00,BKN,OVC,0.00,WeatherDisplay:10.37,2013-05-10 01:38:00,
2013-05-09 21:43:00,63.1,56.1,29.85,NW,313,0.0,0.0,78,0.00,BKN,OVC,0.00,WeatherDisplay:10.37,2013-05-10 01:43:00,
2013-05-09 21:48:00,62.9,56.0,29.85,NW,313,0.0,0.0,78,0.00,BKN,OVC,0.00,WeatherDisplay:10.37,2013-05-10 01:48:00,
2013-05-09 21:53:00,62.5,56.3,29.86,NW,313,0.0,0.0,80,0.00,BKN,OVC,0.00,WeatherDisplay:10.37,2013-05-10 01:53:00,
2013-05-09 21:58:00,62.4,56.1,29.86,NW,313,0.0,0.0,80,0.00,BKN,OVC,0.00,WeatherDisplay:10.37,2013-05-10 01:58:00,
2013-05-09 22:03:00,62.2,56.3,29.86,NW,313,0.0,0.0,81,0.00,BKN,OVC,0.00,WeatherDisplay:10.37,2013-05-10 02:03:00,
2013-05-09 22:08:00,62.2,56.3,29.86,NW,313,0.0,0.0,81,0.00,BKN,OVC,0.00,WeatherDisplay:10.37,2013-05-10 02:08:00,
2013-05-09 22:13:00,62.4,56.1,29.86,NW,313,0.0,0.0,80,0.00,BKN,OVC,0.00,WeatherDisplay:10.37,2013-05-10 02:13:00,
2013-05-09 22:18:00,62.5,56.6,29.86,NW,313,0.0,0.0,81,0.00,BKN,OVC,0.00,WeatherDisplay:10.37,2013-05-10 02:18:00,
2013-05-09 22:23:00,62.3,56.4,29.86,NW,313,0.0,1.0,81,0.00,BKN,OVC,0.00,WeatherDisplay:10.37,2013-05-10 02:23:00,
2013-05-09 22:28:00,62.5,56.3,29.86,NNW,331,0.0,1.0,80,0.00,BKN,OVC,0.00,WeatherDisplay:10.37,2013-05-10 02:28:00,
2013-05-09 22:33:00,62.6,56.4,29.86,NNW,347,0.0,0.0,80,0.00,BKN,OVC,0.00,WeatherDisplay:10.37,2013-05-10 02:33:00,
2013-05-09 22:38:00,62.7,56.4,29.86,NNW,343,0.0,2.0,80,0.00,BKN,OVC,0.00,WeatherDisplay:10.37,2013-05-10 02:38:00,
2013-05-09 22:43:00,62.7,56.4,29.86,NNW,338,0.0,0.0,80,0.00,BKN,OVC,0.00,WeatherDisplay:10.37,2013-05-10 02:43:00,
2013-05-09 22:48:00,62.6,56.3,29.85,NNW,335,0.0,0.0,80,0.00,BKN,OVC,0.00,WeatherDisplay:10.37,2013-05-10 02:48:00,
2013-05-09 22:53:00,62.3,56.4,29.85,NNW,335,0.0,0.0,81,0.00,BKN,OVC,0.00,WeatherDisplay:10.37,2013-05-10 02:53:00,
2013-05-09 22:58:00,62.1,56.2,29.85,NNW,335,0.0,0.0,81,0.00,BKN,OVC,0.00,WeatherDisplay:10.37,2013-05-10 02:58:00,
2013-05-09 23:03:00,62.1,56.5,29.85,NNW,335,0.0,0.0,82,0.00,BKN,OVC,0.00,WeatherDisplay:10.37,2013-05-10 03:03:00,
2013-05-09 23:08:00,62.2,56.3,29.85,NNW,335,0.0,0.0,81,0.00,BKN,OVC,0.00,WeatherDisplay:10.37,2013-05-10 03:08:00,
2013-05-09 23:13:00,62.2,56.3,29.85,NNW,335,0.0,0.0,81,0.00,OVC,OVC,0.00,WeatherDisplay:10.37,2013-05-10 03:13:00,
2013-05-09 23:18:00,62.0,56.1,29.85,NNW,335,0.0,0.0,81,0.00,OVC,OVC,0.00,WeatherDisplay:10.37,2013-05-10 03:18:00,
2013-05-09 23:23:00,61.9,56.3,29.85,NNW,335,0.0,0.0,82,0.00,OVC,OVC,0.00,WeatherDisplay:10.37,2013-05-10 03:23:00,
2013-05-09 23:28:00,61.8,56.2,29.85,NNW,335,0.0,0.0,82,0.00,OVC,OVC,0.00,WeatherDisplay:10.37,2013-05-10 03:28:00,
2013-05-09 23:33:00,61.7,55.8,29.85,NNW,335,0.0,1.0,81,0.00,OVC,OVC,0.00,WeatherDisplay:10.37,2013-05-10 03:33:00,
2013-05-09 23:38:00,61.7,56.1,29.85,NNW,335,0.0,0.0,82,0.00,OVC,OVC,0.00,WeatherDisplay:10.37,2013-05-10 03:38:00,
2013-05-09 23:43:00,61.6,55.7,29.86,NNW,335,0.0,0.0,81,0.00,OVC,OVC,0.00,WeatherDisplay:10.37,2013-05-10 03:43:00,
2013-05-09 23:48:00,61.7,55.5,29.86,NNW,336,0.0,1.0,80,0.00,OVC,OVC,0.00,WeatherDisplay:10.37,2013-05-10 03:48:00,
2013-05-09 23:53:00,61.8,54.9,29.86,NNW,339,0.0,2.0,78,0.00,OVC,OVC,0.00,WeatherDisplay:10.37,2013-05-10 03:53:00,
2013-05-09 23:58:00,61.9,55.3,29.86,NNW,332,1.0,3.0,79,0.00,OVC,OVC,0.00,WeatherDisplay:10.37,2013-05-10 03:58:00,